sat.trackr.live / text

‹ back to catalog

STARLINK-30617

NORAD 58104 · 2023-161H

PAYLOAD ACTIVE UNKNOWN

§ Identity

Operator
Country
US
Launch date
2023-10-21
Launch site
AFWTR
Launch vehicle
Mass (kg)
RCS (m²)

Purposes: comms

External: N2YO · Heavens-Above · Gunter

§ Orbital elements

Epoch: 2026-05-25T02:03:12.695040Z

Period
94.11 min
Inclination
53.1597°
Eccentricity
0.0001101
Mean motion
15.30198633 rev/d
Perigee alt
474.5 km
Apogee alt
476.0 km
Semi-major
6,853.4 km
B*
4.7203e-5
RAAN
170.8080°
Arg perigee
80.1206°
Mean anomaly
279.9919°
Rev number
14,611

§ Raw data

STARLINK-306171 58104U 23161H   26145.08556360  .00001039  00000+0  47203-4 0  99942 58104  53.1597 170.8080 0001101  80.1206 279.9919 15.30198633146112

JSON: /api/v1/satellites/58104 · /tle

For live sub-satellite position, see the globe view (requires WebGL).

§ Visibility from observer

Set your observer location to see the next 7 days of passes ≥ 10°. The values pass through the URL so the page stays shareable.

No JS? Fill the form by hand. The geolocation button needs JavaScript.